Regional Weather Roundup
Issued by NWS

Home | Current Version | Previous Version | Graphics & Text | Print | Product List | Glossary Off
Versions: 1 2 3 4 5 6 7 8 9 10 11 12 13 14 15 16 17 18 19 20 21 22 23 24 25 26 27 28 29 30 31 32 33 34 35 36 37 38 39 40 41 42 43 44 45 46 47 48 49 50

000
ASUS43 KFSD 211610
RWRSD

WEATHER ROUNDUP FOR SOUTH DAKOTA
NATIONAL WEATHER SERVICE SIOUX FALLS SD
1100 AM CDT WED JUN 21 2017

NOTE: "FAIR" INDICATES FEW OR NO CLOUDS BELOW 12,000 FEET WITH NO
SIGNIFICANT WEATHER AND/OR OBSTRUCTIONS TO VISIBILITY.


SDZ001>005-009-010-012>017-211700-
NORTHWEST AND NORTH CENTRAL SOUTH DAKOTA

CITY           SKY/WX    TMP DP  RH WIND       PRES   REMARKS
BUFFALO          N/A     80  57  45 NW20G29   29.77S
FAITH            N/A     77  58  51 W10       29.78S
MOBRIDGE       SUNNY     78  58  49 S9        29.73F
$$

SDZ012>016-024>037-041>051-057-063-072>074-211700-
SOUTHWEST AND SOUTH CENTRAL SOUTH DAKOTA

CITY           SKY/WX    TMP DP  RH WIND       PRES   REMARKS
RAPID CTY ARPT SUNNY     82  55  39 N10       29.84S
PIERRE         CLOUDY    76  60  57 SW8       29.75R
CUSTER         MOSUNNY   82  46  28 NW8       29.99R
ELLSWORTH AFB  SUNNY     80  55  42 N9        29.84R
PHILIP         SUNNY     78  60  53 NW5       29.77R
PINE RIDGE     SUNNY     79  57  46 W9        29.85S
SPEARFISH      FAIR      79  57  47 NW14G21   29.90R
WINNER         FAIR      81  59  47 S13       29.76S
$$

SDZ004>011-016>023-039-040-211700-
NORTHEAST SOUTH DAKOTA

CITY           SKY/WX    TMP DP  RH WIND       PRES   REMARKS
ABERDEEN       SUNNY     76  58  53 S14G21    29.76S
WATERTOWN      SUNNY     73  58  59 S13       29.78R
BROOKINGS      CLOUDY    64  58  80 SE7       29.79R
SISSETON         N/A     75  53  46 S14       29.76F
$$

SDZ017-020-022-023-036>040-048>070-211700-
SOUTHEAST SOUTH DAKOTA

CITY           SKY/WX    TMP DP  RH WIND       PRES   REMARKS
SIOUX FALLS    CLOUDY    69  63  81 SE14      29.77F
HURON          CLOUDY    69  60  73 S12       29.75R
CHAMBERLAIN    CLOUDY    76  65  67 SE13      29.74S
MITCHELL       CLOUDY    72  61  68 S21       29.74F
YANKTON        CLOUDY    70  60  70 SE12      29.79F
$$

ABBREVIATIONS USED IN REMARKS
   TC - TEMPERATURE IN CELSIUS
  WCI - WIND CHILL INDEX
   HX - HEAT INDEX
  VSB - VISIBILITY





USA.gov is the U.S. government's official web portal to all federal, state and local government web resources and services.